[[{"header":{"parameterUnit":"m.s-1","parameterCategory":1,"la1":30.2991,"la2":30.254,"lo1":-89.0895,"lo2":-89.0444,"dy":0.0017,"dx":0.0017,"nx":28,"ny":28,"refTime":"2023-07-21T03:00:00:Z","depth":0,"parameterNumber":2,"parameterNumberName":"U-component_of_WINDS"},"data":[0,0,0,0,0,0,0,0,0,0,0,0,0,0,0,0,0,0,0,0,0,0,0,0,0,0,0,0,0,0,0,0,0,0,0,0,0,0,0,0,0,0,0,0,0,0,0,0,0,0,0,0,0,0,0,0,0,0,5.2661,5.2662,0,5.2736,5.2737,5.2738,5.2659,5.2656,5.2653,5.265,5.2725,5.273,5.2734,0,0,0,0,0,0,0,0,0,0,0,0,0,5.2446,5.245,5.2661,5.2662,5.2663,5.2736,5.2737,5.2738,5.266,5.2656,5.2652,5.2649,5.2723,5.2729,5.2735,0,0,0,0,0,0,0,0,0,0,0,0,0,5.2532,5.2452,5.2661,5.2633,5.2631,5.2736,5.2737,5.2738,5.266,5.2656,5.2651,5.2647,5.2721,5.2728,5.2736,5.2871,0,0,5.2758,5.2761,0,0,0,0,0,0,0,0,5.2527,5.254,5.2636,5.2635,5.2633,5.2684,5.2689,5.2783,5.2662,5.2649,5.265,5.2645,5.2715,5.2722,5.2746,5.2875,5.2878,5.2758,5.2763,5.2766,5.2768,0,0,0,0,0,0,0,5.2521,5.2536,5.2691,5.2637,5.2636,5.2615,5.2622,5.2706,5.2707,5.265,5.2644,5.2654,5.2713,5.2739,5.2747,5.2879,5.2758,5.2765,5.2769,5.2772,5.3118,5.3123,0,0,0,0,0,0,5.2519,5.2532,5.2688,5.2693,5.2568,5.2623,5.2631,5.2672,5.2705,5.2706,5.2658,5.2651,5.2729,5.2739,5.275,5.2907,5.2766,5.2773,5.2777,5.3114,5.3119,5.3125,0,0,0,0,0,0,5.2515,5.2534,5.2685,5.2611,5.2629,5.2631,5.2678,5.2676,5.2702,5.2712,5.2711,5.2685,5.2726,5.274,5.2841,5.2909,5.2776,5.2782,5.3108,5.3115,5.3122,5.3226,0,0,0,0,0,0,5.2509,5.2533,5.2586,5.2613,5.2633,5.2777,5.2683,5.2681,5.2715,5.2706,5.2737,5.2738,5.2724,5.283,5.2848,5.2916,5.2788,5.3102,5.3111,5.312,5.3216,5.3236,5.3252,0,0,0,0,0,5.2502,5.2612,5.2589,5.2608,5.2699,5.2781,5.2792,5.2774,5.2721,5.2773,5.2778,5.2737,5.2899,5.2842,5.2861,5.2932,5.3097,5.3108,5.3119,5.3208,5.3232,5.3252,0,0,0,0,0,0,5.2593,5.2615,5.2589,5.2713,5.2745,5.2768,5.2832,5.2801,5.2849,5.2838,5.2813,5.2821,5.2927,5.294,5.2876,5.3063,5.2989,5.3005,5.305,5.3073,5.3091,5.3084,5.2794,0,0,0,0,0,5.2627,5.2693,5.2709,5.2816,5.2833,5.2831,5.2866,5.2849,5.2881,5.2895,5.2908,5.294,5.2998,5.3037,5.3091,5.3219,5.3222,5.3277,5.3295,5.331,5.3322,5.3386,5.341,5.3161,5.3161,5.316,0,0,5.2699,5.2719,5.2762,5.2834,5.2858,5.2924,5.2843,5.2917,5.2965,5.2906,5.3001,5.3012,5.3047,5.3161,5.3211,5.3175,5.3392,5.3324,5.3336,5.334,5.34,5.3424,5.3445,5.3168,5.3167,5.3166,0,0,5.2862,5.2886,5.2976,5.3001,5.3037,5.3034,5.3056,5.3083,5.3087,5.3183,5.3139,5.3195,5.3297,5.3322,5.3348,5.3519,5.3481,5.3538,5.3631,5.3694,5.3713,5.373,5.3787,5.3809,5.3551,5.3551,5.3551,0,5.2946,5.3045,5.3026,5.3103,5.3134,5.3084,5.3172,5.3198,5.325,5.3272,5.3231,5.3354,5.3375,5.3491,5.3533,5.3557,5.3578,5.3533,5.3712,5.3729,5.3745,5.3799,5.3821,5.3558,5.3557,5.3556,5.3556,0,5.3145,5.3214,5.3282,5.3333,5.3373,5.3456,5.3446,5.3489,5.3469,5.3469,5.3565,5.3588,5.3643,5.3671,5.3652,5.3784,5.376,5.3717,5.3641,5.3775,5.3825,5.3846,5.3567,5.3564,5.3562,5.3561,0,0,5.3367,5.3405,5.343,5.345,5.3486,5.3539,5.3619,5.3673,5.3708,5.3746,5.3809,5.3896,5.3854,5.3884,5.3868,5.3924,5.4052,5.3872,5.3873,5.3901,5.4195,5.4224,5.4249,5.4029,5.4033,5.4036,5.419,0,5.3527,5.3665,5.3649,5.378,5.3842,5.3794,5.3863,5.3891,5.3894,5.3945,5.3948,5.4008,5.3951,5.3968,5.4022,5.4026,5.411,5.4015,5.4084,5.4087,5.4073,5.4276,5.4308,5.4453,5.421,5.4214,5.4216,0,5.3734,5.3777,5.3915,5.3938,5.3963,5.4025,5.4072,5.4124,5.4154,5.4151,5.4184,5.4157,5.4234,5.416,5.4264,5.4199,5.4227,5.4233,5.4238,5.4241,5.4157,5.428,5.4499,5.4519,5.4247,5.4245,5.4243,0,5.3876,5.397,5.4063,5.4083,5.4114,5.4158,5.4173,5.4199,5.4232,5.4273,5.4293,5.4344,5.437,5.4409,5.4395,5.4343,5.45,5.4426,5.4497,5.4498,5.453,5.4527,5.4752,5.4555,5.4555,5.4554,5.4554,0,5.4055,5.414,5.4127,5.4184,5.4276,5.4256,5.4348,5.4357,5.438,5.4436,5.4399,5.4452,5.4433,5.4484,5.4475,5.4559,5.4573,5.4571,5.4567,5.4572,5.4572,5.4587,5.4575,5.456,5.4559,5.4558,5.4557,0,5.4228,5.4224,5.4321,5.4342,5.4349,5.4416,5.4433,5.4485,5.4485,5.4556,5.4572,5.4571,5.4629,5.462,5.4686,5.4679,5.4784,5.4769,5.4773,5.4768,5.4839,5.4831,5.5078,5.5108,5.4896,5.4898,5.49,0,5.4341,5.4405,5.4432,5.4467,5.4485,5.4542,5.4575,5.4558,5.4593,5.4631,5.4678,5.4734,5.4776,5.4871,5.4876,5.4924,5.4908,5.4992,5.4915,5.4917,5.4904,5.4899,5.4903,5.5005,5.5008,5.501,5.5011,0,5.454,5.4534,5.4583,5.4632,5.4672,5.4709,5.4743,5.4773,5.4759,5.48,5.4859,5.4893,5.4958,5.5012,5.5057,5.5071,5.5038,5.5036,5.5054,5.5058,5.5056,5.5054,5.481,5.5029,5.5028,5.5026,5.5025,5.5025,5.4683,5.4736,5.4763,5.4818,5.4841,5.4873,5.4922,5.4927,5.4977,5.5028,5.5016,5.5082,5.5107,5.5165,5.5183,5.5233,5.5202,5.523,5.5236,5.5242,5.5248,5.5052,5.5242,5.5241,5.5241,5.524,5.524,0,5.4876,5.4891,5.4942,5.4989,5.5032,5.4999,5.5034,5.5071,5.513,5.5157,5.52,5.5266,5.5318,5.5326,5.5374,5.5412,5.5398,5.5425,5.542,5.5423,5.5276,5.5253,5.5436,5.5436,5.5436,5.5435,5.5435,5.5435,5.4981,5.5067,5.5065,5.5161,5.5175,5.5239,5.5261,5.5289,5.531,5.5386,5.5428,5.5434,5.5453,5.5502,5.5546,5.5547,5.5565,5.5597,5.5592,5.5453,5.5434,5.5415,5.5393,5.5602,5.5603,5.5734,5.5735,5.5736]},{"header":{"parameterUnit":"m.s-1","parameterCategory":1,"la1":30.2991,"la2":30.254,"lo1":-89.0895,"lo2":-89.0444,"dy":0.0017,"dx":0.0017,"nx":28,"ny":28,"refTime":"2023-07-21T03:00:00:Z","depth":0,"parameterNumber":3,"parameterNumberName":"V-component_of_WINDS"},"data":[0,0,0,0,0,0,0,0,0,0,0,0,0,0,0,0,0,0,0,0,0,0,0,0,0,0,0,0,0,0,0,0,0,0,0,0,0,0,0,0,0,0,0,0,0,0,0,0,0,0,0,0,0,0,0,0,0,0,4.2097,4.2098,0,4.2177,4.2178,4.2179,4.2152,4.215,4.2148,4.2146,4.2225,4.2229,4.2232,0,0,0,0,0,0,0,0,0,0,0,0,0,4.1916,4.1919,4.2097,4.2098,4.2099,4.2177,4.2178,4.2179,4.2152,4.215,4.2148,4.2146,4.2224,4.2228,4.2233,0,0,0,0,0,0,0,0,0,0,0,0,0,4.1995,4.1921,4.2097,4.2095,4.2096,4.2177,4.2178,4.218,4.2152,4.215,4.2147,4.2145,4.2222,4.2228,4.2233,4.232,0,0,4.225,4.2253,0,0,0,0,0,0,0,0,4.1991,4.2002,4.2094,4.2095,4.2096,4.2152,4.2143,4.2227,4.2153,4.2131,4.2146,4.2143,4.2203,4.221,4.223,4.2324,4.2327,4.2251,4.2254,4.2257,4.2258,0,0,0,0,0,0,0,4.1985,4.1998,4.2129,4.2096,4.2097,4.2089,4.2097,4.2159,4.218,4.2132,4.2131,4.2141,4.2203,4.2225,4.2232,4.2329,4.2251,4.2256,4.2259,4.2261,4.2495,4.2498,0,0,0,0,0,0,4.198,4.1994,4.2126,4.2131,4.2036,4.2094,4.2103,4.2137,4.218,4.2184,4.2143,4.2139,4.2217,4.2226,4.2235,4.2338,4.2257,4.2262,4.2265,4.2492,4.2496,4.2499,0,0,0,0,0,0,4.1976,4.1992,4.2123,4.2062,4.2078,4.21,4.2137,4.2139,4.2162,4.2188,4.2191,4.2162,4.2215,4.2227,4.2299,4.234,4.2264,4.227,4.2489,4.2493,4.2497,4.2546,0,0,0,0,0,0,4.1971,4.1991,4.2025,4.2063,4.2081,4.2188,4.214,4.2143,4.2172,4.2168,4.2206,4.221,4.2214,4.2291,4.2305,4.2347,4.2274,4.2485,4.2491,4.2496,4.2541,4.2551,4.256,0,0,0,0,0,4.1965,4.2035,4.2027,4.2043,4.2125,4.219,4.22,4.2204,4.2176,4.2209,4.2225,4.2209,4.2334,4.2298,4.2314,4.2358,4.2483,4.2489,4.2495,4.2536,4.2549,4.256,0,0,0,0,0,0,4.2001,4.204,4.2032,4.2117,4.2151,4.2185,4.2228,4.2218,4.2259,4.2254,4.2255,4.2264,4.2338,4.2355,4.2315,4.2443,4.2404,4.2413,4.2429,4.2442,4.2452,4.2445,4.2279,0,0,0,0,0,4.2019,4.207,4.2101,4.2173,4.2191,4.2207,4.2235,4.2235,4.2269,4.2283,4.2304,4.2337,4.2383,4.2413,4.2457,4.2543,4.255,4.2581,4.259,4.2598,4.2607,4.2651,4.2664,4.252,4.252,4.252,0,0,4.2057,4.2085,4.2117,4.2181,4.2207,4.2258,4.2219,4.2274,4.2311,4.2291,4.236,4.2377,4.2413,4.2492,4.2528,4.2508,4.2648,4.2607,4.2613,4.2617,4.2659,4.2673,4.2685,4.2524,4.2523,4.2523,0,0,4.2152,4.2179,4.2241,4.2268,4.2307,4.2317,4.2332,4.2368,4.2379,4.2449,4.2434,4.2477,4.2557,4.2583,4.2607,4.2709,4.2695,4.2724,4.2775,4.2818,4.2829,4.2839,4.2875,4.2887,4.2732,4.2732,4.2732,0,4.2194,4.2271,4.2274,4.2331,4.2359,4.2343,4.2405,4.243,4.2482,4.2501,4.2479,4.2578,4.2602,4.2685,4.271,4.273,4.2746,4.2719,4.2828,4.2838,4.2847,4.2881,4.2894,4.2735,4.2735,4.2734,4.2734,0,4.2319,4.2373,4.2418,4.2469,4.2502,4.2561,4.2572,4.2605,4.2601,4.2613,4.2683,4.271,4.2759,4.2779,4.2776,4.2861,4.2848,4.2827,4.2787,4.2864,4.2895,4.2908,4.2739,4.2738,4.2737,4.2737,0,0,4.244,4.2491,4.2508,4.253,4.2572,4.2612,4.2669,4.2718,4.2745,4.2781,4.2827,4.2895,4.2875,4.2902,4.2902,4.294,4.3017,4.2914,4.2915,4.2931,4.3111,4.3126,4.3141,4.3008,4.3011,4.3013,4.3107,0,4.2537,4.2639,4.2643,4.2735,4.2784,4.2768,4.2818,4.2848,4.286,4.2901,4.2914,4.2961,4.2933,4.2949,4.2986,4.3,4.3053,4.2993,4.305,4.3052,4.3041,4.3158,4.3174,4.3262,4.312,4.3122,4.3124,0,4.2664,4.2704,4.2802,4.2835,4.2855,4.29,4.2944,4.2984,4.3017,4.3023,4.3052,4.3046,4.3102,4.3061,4.3138,4.3097,4.312,4.313,4.3134,4.3139,4.3092,4.3164,4.3291,4.3304,4.3143,4.3142,4.314,0,4.274,4.2819,4.2887,4.2906,4.2947,4.2979,4.2997,4.3027,4.3056,4.3093,4.3111,4.3154,4.3178,4.321,4.3215,4.3185,4.3292,4.3251,4.3296,4.3296,4.3319,4.3318,4.345,4.3336,4.3336,4.3335,4.3335,0,4.2848,4.2908,4.2921,4.2963,4.3029,4.3032,4.3097,4.3112,4.3139,4.3182,4.3171,4.3212,4.3216,4.3257,4.3261,4.3323,4.3334,4.3339,4.3339,4.3339,4.3338,4.3354,4.3347,4.3339,4.3338,4.3338,4.3337,0,4.2944,4.2956,4.3029,4.3062,4.3071,4.3118,4.3145,4.3184,4.3195,4.3249,4.3262,4.3278,4.3326,4.3334,4.339,4.3392,4.3466,4.346,4.3455,4.3454,4.3498,4.3494,4.3645,4.3664,4.3538,4.3539,4.354,0,4.3012,4.3058,4.3095,4.3124,4.3144,4.319,4.3218,4.3222,4.3252,4.3292,4.3326,4.3372,4.341,4.3486,4.3502,4.3544,4.3538,4.3588,4.3545,4.3543,4.3538,4.3534,4.3538,4.3597,4.3598,4.3599,4.36,0,4.313,4.3133,4.3175,4.322,4.3254,4.3289,4.3321,4.3345,4.3353,4.3387,4.3436,4.3465,4.3521,4.3567,4.3609,4.3625,4.3614,4.3614,4.3626,4.3627,4.3621,4.3623,4.3477,4.361,4.3609,4.3608,4.3608,4.3607,4.3213,4.3252,4.3284,4.3331,4.3356,4.3387,4.3425,4.344,4.3481,4.3528,4.3528,4.3581,4.361,4.3665,4.3684,4.3725,4.3708,4.3727,4.3731,4.3736,4.3739,4.3616,4.3732,4.3732,4.3732,4.3732,4.3731,0,4.3329,4.3349,4.3392,4.3438,4.3475,4.3461,4.3496,4.3527,4.3574,4.3603,4.364,4.3696,4.3739,4.3758,4.3801,4.3829,4.3825,4.384,4.3838,4.3841,4.3752,4.3737,4.3843,4.3843,4.3843,4.3843,4.3843,4.3843,4.3394,4.3459,4.3466,4.3542,4.3561,4.3614,4.3635,4.3662,4.3685,4.3748,4.3784,4.3797,4.3821,4.3865,4.3904,4.3908,4.3924,4.3941,4.3943,4.3859,4.3848,4.3837,4.3822,4.3945,4.3945,4.4028,4.4029,4.403]}]]